Weather History for KN60 - November, 2011

Change the Weather History Date:

Wednesday, November 16, 2011

  Actual Average Record
Temperature  
Mean Temperature 18 °F -  
Max Temperature 24 °F 34 °F 64 °F (2001)
Min Temperature 12 °F 16 °F 1 °F (2000)
Degree Days  
Heating Degree Days 47    
Month to date heating degree days 496  
Moisture  
Dew Point 9 °F    
Average Humidity 77    
Maximum Humidity 96    
Minimum Humidity 57    
Precipitation  
Precipitation 0.00 in - - ()
Month to date precipitation 0.09  
Year to date precipitation 17.09  
Sea Level Pressure  
Sea Level Pressure 30.18 in    
Wind  
Wind Speed 17 mph (NW)    
Max Wind Speed 30 mph    
Max Gust Speed 38 mph    
Averages and records for this station are not official NWS values.
T = Trace of Precipitation, MM = Missing Value Source: NWS Daily Summary

Daily Weather History Graph

Daily Weather History Graph

Search for Another Location

Airport or City:

Trip Planner

Search our weather history database for the weather conditions in past years. The results will help you decide how hot, cold, wet, or windy it might be!

Date:

Astronomy

Nov. 16, 2011 Rise Set
Actual Time 7:52 AM CST 5:08 PM CST
Civil Twilight 7:18 AM CST 5:41 PM CST
Nautical Twilight 6:40 AM CST 6:19 PM CST
Astronomical Twilight 6:04 AM CST 6:55 PM CST
Moon 10:28 PM CST (11/16) 12:27 PM CST (11/16)
Length of Visible Light 10h 23m
Length of Day
9h 16m
Waning Gibbous, 70% of the Moon is Illuminated
Nov 16
Waning Gibbous
Nov 18
Last Quarter
Nov 25
New
Dec 2
First Quarter
Dec 10
Full

Hourly Weather History & Observations

Time (CST) Temp. Windchill Dew Point Humidity Pressure Visibility Wind Dir Wind Speed Gust Speed Precip Events Conditions
12:52 AM 24.1 °F 12.0 °F 17.1 °F 75% 30.01 in - NW 13.8 mph 20.7 mph N/A   Unknown
1:52 AM 19.9 °F 6.7 °F 14.0 °F 78% 30.03 in - NW 13.8 mph - N/A   Unknown
2:52 AM 17.1 °F 2.5 °F 12.0 °F 81% 30.05 in - NW 15.0 mph - N/A   Unknown
3:52 AM 16.0 °F 1.7 °F 10.0 °F 77% 30.07 in - WNW 13.8 mph - N/A   Unknown
4:52 AM 18.0 °F -0.2 °F 10.9 °F 74% 30.08 in - NW 25.3 mph 32.2 mph N/A   Unknown
5:52 AM 17.1 °F -1.7 °F 9.0 °F 71% 30.10 in - NW 26.5 mph 35.7 mph N/A   Unknown
6:52 AM 17.1 °F 2.5 °F 10.0 °F 74% 30.14 in - WNW 15.0 mph 28.8 mph N/A   Unknown
7:52 AM 17.1 °F 1.0 °F 10.0 °F 74% 30.16 in - WNW 18.4 mph 26.5 mph N/A   Unknown
8:52 AM 16.0 °F 0.6 °F 10.0 °F 77% 30.18 in - WNW 16.1 mph 24.2 mph N/A   Unknown
9:52 AM 17.1 °F 0.6 °F 9.0 °F 71% 30.20 in - WNW 19.6 mph 27.6 mph N/A   Unknown
10:52 AM 17.1 °F 2.0 °F 9.0 °F 71% 30.22 in - NW 16.1 mph 25.3 mph N/A   Unknown
11:52 AM 19.0 °F 2.7 °F 10.0 °F 68% 30.22 in - WNW 20.7 mph 27.6 mph N/A   Unknown
12:52 PM 21.0 °F 6.6 °F 12.0 °F 68% 30.22 in - WNW 17.3 mph 24.2 mph N/A   Unknown
1:52 PM 23.0 °F 8.7 °F 12.0 °F 63% 30.22 in - WNW 18.4 mph 23.0 mph N/A   Unknown
2:52 PM 21.9 °F 7.8 °F 9.0 °F 58% 30.23 in - WNW 17.3 mph - N/A   Unknown
3:52 PM 21.9 °F 9.2 °F 8.1 °F 55% 30.24 in - NW 13.8 mph - N/A   Unknown
4:00 PM - - - N/A% - - North - - N/A   Unknown
4:52 PM 18.0 °F 8.7 °F 8.1 °F 65% 30.26 in - NW 6.9 mph - N/A   Unknown
6:52 PM 9.0 °F 0.6 °F 3.9 °F 80% 30.27 in - NW 4.6 mph - N/A   Unknown
7:52 PM 6.1 °F - 3.0 °F 87% 30.27 in - Calm Calm - N/A   Unknown
8:52 PM 5.0 °F -6.9 °F 1.0 °F 84% 30.27 in - NW 6.9 mph - N/A   Unknown
9:52 PM 7.0 °F - 3.0 °F 84% 30.27 in - Calm Calm - N/A   Unknown
10:52 PM 10.9 °F - 6.1 °F 81% 30.25 in - Calm Calm - N/A   Unknown
11:52 PM 7.0 °F - 3.0 °F 84% 30.24 in - Calm Calm - N/A   Unknown